Regional Weather Roundup
Issued by NWS Cleveland, OH

Home | Current Version | Previous Version | Text Only | Print | Product List | Glossary Off
Versions: 1 2 3 4 5 6 7 8 9 10 11 12 13 14 15 16 17 18 19 20 21 22 23 24 25 26 27 28 29 30 31 32 33 34 35 36 37 38 39 40 41 42 43 44 45 46 47 48 49 50

000
ASUS41 KCLE 012010
RWRCLE
OHIO REGIONAL WEATHER ROUNDUP
NATIONAL WEATHER SERVICE CLEVELAND, OH
300 PM EST SUN FEB 01 2015

NOTE: "FAIR" INDICATES FEW OR NO CLOUDS BELOW 12,000 FEET WITH NO
SIGNIFICANT WEATHER AND/OR OBSTRUCTIONS TO VISIBILITY.

OHZ001>008-015>018-024>027-034-035-043-044-012100-
   NORTHWEST OHIO

CITY           SKY/WX    TMP DP  RH WIND       PRES   REMARKS
DEFIANCE       SNOW      28  25  88 E16       29.77F VSB 1/4 WCI  16
FINDLAY        HVY SNOW  34  31  88 E13       29.76F VSB 1/4 WCI  25
TOLEDO EXPRESS LGT SNOW  27  23  86 NE21G26   29.80F VSB 3/4 WCI  13
TOLEDO EXEC    LGT SNOW  29  26  89 NE15G23   29.84F VSB 3/4 WCI  18
LIMA           SNOW      35  32  88 SE10      29.73F VSB 1/2 WCI  27
$$

OHZ009>014-019>023-028>033-038-089-012100-
   NORTHEAST OHIO

CITY           SKY/WX    TMP DP  RH WIND       PRES   REMARKS
CLE-HOPKINS    SNOW      31  29  92 E8        29.91F VSB 1/4 WCI  23
CLE-LAKEFRONT  LGT SNOW  32  29  88 E6        29.89F VSB 1   WCI  26
CUY CO. ARPT   SNOW      32  30  93 E9        29.91F VSB 1/2 WCI  24
LORAIN-ELYRIA  LGT SNOW  31  30  96 E9        29.86F FOG     WCI  23
ASHTABULA      SNOW      29  27  92 E7        29.95F VSB 1/2 WCI  22
AKRON-CANTON   LGT SNOW  33  29  85 SE10      29.87F WCI  25
WOOSTER        CLOUDY    32  29  88 SE10      29.86F FOG     WCI  24
MANSFIELD      LGT SNOW  33  31  92 SE10      29.81F FOG     WCI  25
YOUNGSTOWN     SNOW      30  27  88 E10       29.91F VSB 1/2 WCI  21
$$

OHZ042-051>053-060>062-070>072-077>081-012100-
  SOUTHWEST OHIO

CITY           SKY/WX    TMP DP  RH WIND       PRES   REMARKS
CINC-COVINGTON LGT RAIN  44  39  82 S15G24    29.69F
CINC-LUNKEN    CLOUDY    42  39  89 S14G24    29.72F
HAMILTON       LGT RAIN  42  40  92 CALM      29.71F
DAYTON         LGT RAIN  36  33  89 SE10      29.70F FOG
WRIGHT-PAT AFB DRIZZLE   37  32  81 CALM      29.72F FOG
DAYTON GENERAL LGT RAIN  40  37  89 S10       29.69F FOG
WILMINGTON     LGT RAIN  40  35  83 S17G26    29.72F
$$

OHZ036-037-039>041-045>050-054>059-063>069-073>076-082>088-012100-
  CENTRAL AND SOUTHEAST OHIO

CITY           SKY/WX    TMP DP  RH WIND       PRES   REMARKS
COLUMBUS       CLOUDY    36  30  79 SE10      29.79F
OSU AIRPORT    LGT SNOW  35  31  85 E14       29.77F FOG     WCI  26
BOLTON FIELD   CLOUDY    36  32  87 SE9       29.78F
RICKENBACK AFB LGT RAIN  38  31  78 SE8       29.78F
NEWARK         LGT RAIN  37  32  82 E5        29.81F
MARION         LGT SNOW  35  31  85 SE20      29.77F FOG     WCI  24
LANCASTER      LGT RAIN  38  31  76 SE8       29.81F
ZANESVILLE     CLOUDY    34  31  88 E9        29.84F WCI  27
NEW PHILLY     CLOUDY    35  31  85 SE8       29.90F WCI  29
$$



USA.gov is the U.S. government's official web portal to all federal, state and local government web resources and services.